Showing default

ASIASAT 8, 40107

Orbit data source: Space-Track

ASIASAT 8, 40107 is a payload satellite owned by Asiasat (HK) in GEO that was launched on Tue, 05 Aug 2014 UTC via an FALCON 9 launch vehicle from the Air Force Eastern Test Range (AFETR). Payload-class satellites include a variety of spacecraft equipped with specific instruments for various scientific and technological missions. These include communications satellites like Starlink; space stations such as the ISS; scientific satellites like the Hubble; Earth observation satellites from companies like Planet Labs, Umbra, and HawkEye 360; GPS; miniature CubeSats for education and research; and military/defense satellites.

Not visible in the next 10 days
Identifier
40107, 2014-046A
Orbit
GEO
Country
Flag of ACAC
Related business
Manufacturer
SS/Loral (MDA)
Mission
Operational Commercial Communications
Bus & Motor
LS-1300LL, R-4D
Mass
4,535 kg wet, ~2,500 kg dry
Launch date (UTC)
2014-08-05 (12 years ago)
Launch vehicle
FALCON 9
Launch site
Air Force Eastern Test Range (AFETR)
Object type
Payload
Rocket body
Debris
Shape & HBR
Box + 2 Pan, 13.5 m
Radar Cross Section
26.964 m², Large (>1 m²)

Expand to show TLE details & history
Last TLE update: 2 days ago

TLE from 2 days ago
0 ASIASAT 8
1 40107U 14046A   26171.41291205 -.00000337  00000-0  00000+0 0  9991
2 40107   0.0253  67.9261 0001402  19.3197  75.3344  1.00272598102184
Epoch: 2026-06-20T09:54Z
TLE epoch observation values (Epoch: 2026-06-20T09:54:35.601Z)
Latitude
0.02878°
Longitude
105.33188°
Altitude
35,784.352 km
Speed
3.075 km/s
True Right ascension
10h 50m 25s
True Declination
0° 01' 43"
Sunlit
Object was in daylight at epoch
Visualization orbit readout
Latitude
Unknown
Longitude
Unknown
Altitude
Unknown
Speed
Unknown
Apparent Right ascension
Unknown
Apparent Declination
Unknown
Sunlit
N/A
Visualization observer readout
Local Sidereal Time
21:36:25
Azimuth
Unknown
Elevation
Unknown
Doppler factor
Unknown
Orbital elements
Apogee altitude
35,793.349 km
Perigee altitude
35,781.526 km
Semi-major axis
42,165.574 km
Eccentricity
0.00014
Inclination
0.0253°
RAAN
67.9261°
Arg. of periapsis
19.3197°
True anomaly
75.34994°
Mean anomaly
75.3344°
Eccentric anomaly
75.34217°
Mean motion
0.25067 °/min
Orbital period
1,436.14 mins
BSTAR
0
Loading maneuver chart data...
Computing Atmospheric mass density...
Loading historical data...
Loading historical data...
Loading historical data...
Loading historical data...
Loading historical data...
Loading historical data...
Loading historical data...
Other satellites on launch #46 in the year 2014 (2014-08-05 UTC)

Documentation

Showing up to 5 results
|